www.pogodaiklimat.ru

Погода и климат >> Архив погоды >> Ирландия >> Belmullet


ПОГОДА в Belmullet

  • Прогноз погоды в Belmullet
  • Монитор погоды в Belmullet
  • Климат города

АРХИВ ПОГОДЫ в Belmullet

Время (UTC), дата Ветер
(напр.,м/с)
 
Видим.   Явления Облачность Т
(С)
Тd
(С)
f
(%)
Тe
(С)
Тes
(С)
Комфортность P
(гПа)
Po
(гПа)
Тmin
(С)
Tmax
(С)
R
(мм)
R24
(мм)
S
(см)
16 16.06 З 7 14 км н/о +14.2 +10.5 78 +12 +12 1009.2 1008.0
17 16.06 З 6 16 км н/о +13.7 +10.3 80 +12 +12 1009.5 1008.4
18 16.06 З 7 15 км н/о +13.0 +10.6 85 +10 +10 1009.8 1008.6 +14.6 0.1
19 16.06 З 6 17 км н/о +12.9 +10.6 86 +10 +10 1010.1 1008.9
20 16.06 З 6 15 км н/о +12.6 +10.1 85 +10 +10 1010.3 1009.1
21 16.06 З 6 17 км н/о +12.4 +10.1 86 +10 +10 1010.6 1009.4
22 16.06 З 7 12 км в посл. час дождь {ливн. осадки} н/о +12.1 +10.5 90 +9 +9 1010.8 1009.6
23 16.06 ЮЗ 5 12 км н/о +12.0 +10.1 88 +9 +9 1010.6 1009.4
00 17.06 ЮЗ 5 12 км {ливн. осадки} н/о +11.8 +10.0 89 +9 +9 1010.2 1009.0 0.1
01 17.06 ЮЗ 4 16 км н/о +11.3 +9.4 88 +9 +9 1009.6 1008.4
02 17.06 ЮЗ 5 18 км н/о +11.4 +9.0 85 +9 +9 1009.3 1008.1
03 17.06 ЮЗ 6 14 км слаб. морось н/о +10.7 +9.4 92 +7 +7 1009.0 1007.8
04 17.06 Ю 7 7000 м слаб. ливневой дождь н/о +11.1 +10.5 96 +8 +8 1008.0 1006.8
05 17.06 Ю 8 16 км в посл. час морось н/о +11.4 +10.9 97 +8 +8 1006.9 1005.7
06 17.06 ЮВ 6 21 км {ливн. осадки, морось} н/о +11.2 +10.3 94 +8 +8 1006.3 1005.2 +10.6 0.6
07 17.06 Ю 8 35 км н/о +12.4 +11.3 93 +9 +9 1005.9 1004.7
08 17.06 Ю 9 8000 м дымка н/о +13.0 +12.2 95 +10 +10 1005.6 1004.5
09 17.06 ЮЗ 7 3100 м дымка н/о +13.5 +13.2 98 +11 +11 1005.8 1004.6
10 17.06 ЮЗ 8 5000 м в посл. час морось н/о +13.7 +13.4 98 +11 +11 1006.1 1004.9
11 17.06 ЮЗ 9 12 км н/о +14.2 +12.6 90 +12 +12 1006.4 1005.3
12 17.06 ЮЗ 9 15 км {морось, дымка} н/о +14.0 +12.4 90 +11 +11 1006.9 1005.8 0.1
13 17.06 ЮЗ 9 14 км н/о +14.6 +12.5 87 +12 +12 1007.4 1006.3
14 17.06 ЮЗ 9 11 км н/о +14.2 +12.2 88 +12 +12 1008.0 1006.8
15 17.06 ЮЗ 10 10 км н/о +13.7 +11.9 89 +11 +11 1008.7 1007.5
16 17.06 ЮЗ 9 16 км н/о +14.5 +12.1 86 +12 +12 1009.1 1008.0
17 17.06 З 8 6000 м слаб. ливневой дождь н/о +12.9 +12.0 94 +10 +10 1009.7 1008.5
18 17.06 З 7 11 км {ливн. осадки} н/о +13.1 +10.9 86 +10 +10 1010.1 1008.9 +15.2 0.3
19 17.06 З 7 11 км н/о +12.9 +10.5 85 +10 +10 1010.7 1009.5
20 17.06 ЮЗ 7 10 км н/о +12.7 +9.8 83 +10 +10 1011.6 1010.5
21 17.06 З 7 13 км н/о +12.5 +8.6 77 +10 +10 1012.1 1011.0
22 17.06 З 8 11 км н/о +12.6 +7.8 73 +10 +10 1012.7 1011.5
23 17.06 ЮЗ 7 13 км н/о +12.4 +8.9 79 +10 +10 1012.7 1011.5
00 18.06 ЮЗ 8 11 км н/о +12.2 +9.5 84 +9 +9 1012.6 1011.4
01 18.06 ЮЗ 7 11 км н/о +12.3 +9.5 83 +9 +9 1012.9 1011.7
02 18.06 ЮЗ 7 9000 м дымка н/о +12.2 +10.0 86 +9 +9 1012.9 1011.8
03 18.06 ЮЗ 7 9000 м слаб. ливневой дождь {дымка} н/о +12.0 +10.2 89 +9 +9 1013.0 1011.8
04 18.06 З 6 13 км н/о +11.9 +8.7 81 +9 +9 1013.3 1012.2
05 18.06 ЮЗ 5 11 км н/о +11.8 +9.7 87 +9 +9 1013.2 1012.0
06 18.06 ЮЗ 5 8000 м слаб. ливневой дождь {дымка} н/о +12.0 +9.6 85 +10 +10 1013.2 1012.0 +11.6 0.1
07 18.06 З 7 10 км слаб. ливневой дождь н/о +12.0 +9.2 83 +9 +9 1013.5 1012.4
08 18.06 ЮЗ 6 15 км н/о +12.7 +9.3 80 +10 +10 1013.4 1012.2
09 18.06 ЮЗ 9 16 км {ливн. осадки} н/о +13.4 +10.2 81 +10 +10 1013.5 1012.3
10 18.06 ЮЗ 9 14 км н/о +13.4 +10.0 80 +10 +10 1013.6 1012.4
11 18.06 ЮЗ 8 13 км н/о +13.4 +10.1 80 +11 +11 1014.1 1013.0
12 18.06 ЮЗ 7 12 км {ливн. осадки} н/о +12.8 +9.7 81 +10 +10 1014.2 1013.0 0.0
13 18.06 З 8 11 км н/о +14.0 +10.1 77 +12 +12 1014.7 1013.5
14 18.06 З 8 11 км н/о +14.1 +9.6 74 +12 +12 1014.9 1013.7
15 18.06 З 8 12 км н/о +14.6 +9.8 73 +12 +12 1015.1 1013.9
16 18.06 З 7 14 км н/о +14.5 +8.4 67 +13 +13 1015.9 1014.7
17 18.06 З 7 12 км н/о +13.8 +8.3 69 +12 +12 1016.2 1015.0
18 18.06 З 6 16 км н/о +13.6 +7.6 67 +12 +12 1016.7 1015.5 +14.9 0.0
19 18.06 З 6 16 км н/о +12.6 +7.3 70 +10 +10 1017.4 1016.3
20 18.06 З 5 18 км н/о +11.8 +5.8 67 +9 +9 1017.9 1016.7
21 18.06 З 6 22 км н/о +11.3 +4.5 63 +9 +9 1018.9 1017.7
22 18.06 З 5 19 км н/о +11.6 +5.4 66 +9 +9 1019.2 1018.0
23 18.06 З 5 17 км н/о +11.3 +6.0 70 +9 +9 1019.4 1018.2
00 19.06 З 4 19 км н/о +11.1 +4.8 65 +9 +9 1019.5 1018.3
01 19.06 З 4 14 км н/о +11.0 +5.9 71 +9 +9 1019.3 1018.1
02 19.06 З 4 18 км н/о +11.0 +5.4 68 +9 +9 1019.3 1018.2
03 19.06 З 4 15 км н/о +11.0 +5.9 71 +9 +9 1019.4 1018.2
04 19.06 З 3 20 км н/о +11.1 +5.7 69 +9 +9 1019.2 1018.0
05 19.06 ЮЗ 2 13 км н/о +10.9 +6.9 76 +10 +10 1019.2 1018.0
06 19.06 ЮЗ 2 15 км слаб. морось н/о +10.8 +7.9 82 +9 +9 1019.2 1018.0 +10.8 0.0
07 19.06 Ю 2 13 км слаб. морось {дождь} н/о +10.8 +8.7 87 +9 +9 1019.1 1017.9
08 19.06 Ю 3 14 км слаб. дождь н/о +11.3 +8.7 84 +9 +9 1018.8 1017.6
09 19.06 Ю 4 18 км в посл. час дождь {ливн. осадки} н/о +11.6 +9.1 85 +9 +9 1018.5 1017.3
10 19.06 ЮВ 4 18 км в посл. час морось н/о +12.5 +9.7 83 +11 +11 1017.9 1016.7
11 19.06 ЮВ 5 18 км слаб. ливневой дождь н/о +12.4 +8.9 79 +10 +10 1017.0 1015.8
12 19.06 ЮВ 3 4700 м дождь {ливн. осадки} н/о +11.1 +9.3 89 +9 +9 1016.3 1015.1 3
13 19.06 СВ 3 5000 м слаб. дождь н/о +11.1 +10.4 95 +9 +9 1015.4 1014.2
14 19.06 В 5 4400 м в посл. час морось н/о +11.7 +11.2 97 +9 +9 1014.0 1012.8
15 19.06 ЮВ 4 13 км слаб. ливневой дождь н/о +13.0 +12.6 97 +11 +11 1012.6 1011.5
16 19.06 ЮЗ 10 4700 м в посл. час дождь {ливн. осадки} н/о +14.6 +14.1 97 +12 +12 1011.9 1010.7
17 19.06 ЮЗ 10 5000 м слаб. ливневой дождь н/о +14.6 +14.3 98 +12 +12 1011.3 1010.1
18 19.06 ЮЗ 10 3100 м слаб. ливневой дождь н/о +14.3 +14.0 98 +11 +11 1010.9 1009.7 +14.7 8
19 19.06 ЮЗ 10 4400 м ливневой дождь н/о +14.1 +13.8 98 +11 +11 1010.4 1009.3
20 19.06 ЮЗ 9 6000 м слаб. ливневой дождь н/о +13.9 +13.7 99 +11 +11 1010.3 1009.2
21 19.06 ЮЗ 9 3500 м слаб. дождь {ливн. осадки} н/о +13.8 +13.5 98 +11 +11 1010.5 1009.3
22 19.06 ЮЗ 8 3200 м слаб. ливневой дождь н/о +13.7 +13.5 99 +11 +11 1010.4 1009.3
23 19.06 ЮЗ 8 2900 м слаб. ливневой дождь н/о +13.6 +13.4 99 +11 +11 1010.3 1009.2
00 20.06 ЮЗ 7 2600 м слаб. ливневой дождь н/о +13.4 +13.2 99 +11 +11 1010.5 1009.4 7
01 20.06 С 9 4100 м морось н/о +11.0 +10.7 98 +7 +7 1011.8 1010.6
02 20.06 С 8 18 км слаб. ливневой дождь н/о +10.7 +10.1 96 +7 +7 1013.4 1012.3
03 20.06 С 7 16 км в посл. час морось {ливн. осадки} н/о +10.4 +9.6 95 +7 +7 1015.3 1014.1
04 20.06 С 6 26 км слаб. ливневой дождь н/о +10.0 +8.6 91 +6 +6 1016.8 1015.6
05 20.06 С 5 23 км н/о +9.7 +8.5 92 +6 +6 1017.4 1016.2
06 20.06 С 4 24 км {ливн. осадки, морось} н/о +10.4 +7.9 84 +8 +8 1018.9 1017.7 +9.6 8
07 20.06 С 4 21 км н/о +11.0 +8.0 82 +9 +9 1019.8 1018.6
08 20.06 СЗ 5 22 км н/о +12.3 +8.3 77 +10 +10 1020.9 1019.7
09 20.06 СЗ 6 25 км н/о +12.5 +7.4 71 +10 +10 1021.7 1020.6
10 20.06 СЗ 6 27 км н/о +13.3 +6.2 62 +11 +11 1022.2 1021.0
11 20.06 З 6 29 км н/о +13.5 +5.7 59 +11 +11 1022.9 1021.7
12 20.06 З 6 24 км н/о +13.4 +6.1 61 +11 +11 1023.3 1022.1
13 20.06 З 5 30 км н/о +13.4 +7.4 67 +12 +12 1023.7 1022.5
14 20.06 З 6 23 км н/о +13.1 +6.7 65 +11 +11 1024.1 1022.9
15 20.06 З 5 26 км н/о +12.9 +7.9 72 +11 +11 1024.3 1023.1
16 20.06 З 6 25 км н/о +12.2 +7.7 74 +10 +10 1024.6 1023.4
17 20.06 З 6 21 км н/о +13.0 +7.4 69 +11 +11 1025.0 1023.8
18 20.06 СЗ 7 10 км слаб. ливневой дождь н/о +11.2 +8.4 83 +8 +8 1025.4 1024.2 +14.2 0.0
19 20.06 СЗ 6 17 км н/о +11.6 +8.0 79 +9 +9 1025.6 1024.4
20 20.06 СЗ 7 21 км н/о +11.2 +7.1 76 +8 +8 1026.1 1024.9
21 20.06 СЗ 6 19 км н/о +10.7 +6.3 74 +8 +8 1026.7 1025.5
22 20.06 СЗ 5 18 км н/о +10.4 +6.3 76 +8 +8 1027.4 1026.2
23 20.06 СЗ 5 22 км н/о +9.9 +5.2 73 +7 +7 1027.9 1026.7
00 21.06 СЗ 5 17 км н/о +9.9 +5.7 75 +7 +7 1028.4 1027.2
01 21.06 СЗ 6 18 км н/о +10.5 +6.0 74 +7 +7 1028.8 1027.6
02 21.06 СЗ 4 21 км н/о +9.5 +5.3 75 +7 +7 1029.3 1028.1
03 21.06 СЗ 5 19 км н/о +10.0 +5.7 75 +7 +7 1029.4 1028.2
04 21.06 СЗ 5 18 км н/о +10.6 +6.5 76 +8 +8 1029.6 1028.4
05 21.06 С 5 20 км н/о +10.2 +5.9 75 +7 +7 1030.5 1029.3
06 21.06 СЗ 5 24 км н/о +11.5 +6.0 69 +9 +9 1031.1 1029.9 +9.4
07 21.06 С 5 22 км н/о +12.7 +6.9 68 +11 +11 1031.7 1030.5
08 21.06 С 5 25 км н/о +12.8 +7.4 70 +11 +11 1032.3 1031.2
09 21.06 С 6 24 км н/о +13.8 +7.0 64 +12 +12 1033.0 1031.8
10 21.06 С 6 23 км н/о +13.4 +6.8 64 +11 +11 1033.5 1032.3
11 21.06 С 5 26 км н/о +14.2 +6.5 60 +13 +13 1034.1 1032.9
12 21.06 С 5 25 км н/о +14.7 +6.8 59 +13 +13 1034.4 1033.2
13 21.06 С 5 30 км н/о +14.8 +6.8 59 +13 +13 1034.5 1033.3
14 21.06 С 5 22 км н/о +15.3 +6.7 56 +14 +14 1034.8 1033.7
15 21.06 С 4 35 км н/о +14.0 +6.4 60 +13 +13 1035.2 1034.0
16 21.06 С 5 27 км н/о +14.6 +6.0 56 +13 +13 1035.5 1034.3
17 21.06 С 4 23 км н/о +14.0 +6.5 61 +13 +13 1035.8 1034.6
18 21.06 С 4 30 км н/о +14.0 +6.4 60 +13 +13 1036.0 1034.8 +15.4
19 21.06 С 4 27 км н/о +13.6 +6.0 60 +12 +12 1036.0 1034.8
20 21.06 С 4 30 км н/о +12.8 +6.6 66 +11 +11 1036.2 1035.0
21 21.06 С 2 30 км н/о +10.2 +6.3 77 +9 +9 1036.5 1035.2
22 21.06 С 2 30 км н/о +8.1 +5.4 83 +6 +6 1036.5 1035.2
23 21.06 С 2 26 км н/о +7.4 +5.3 87 +5 +5 1036.6 1035.4
00 22.06 С 2 24 км н/о +6.9 +5.1 88 +5 +5 1036.4 1035.2
01 22.06 С 1 22 км н/о +6.7 +5.2 90 +6 +6 1036.4 1035.1
02 22.06 С 1 23 км н/о +7.3 +5.8 90 +6 +6 1036.1 1034.8
03 22.06 С 2 25 км н/о +6.8 +5.1 89 +4 +4 1036.1 1034.9
04 22.06 С 1 23 км н/о +6.8 +5.2 90 +6 +6 1035.9 1034.7
05 22.06 С 1 25 км н/о +6.3 +5.0 91 +5 +5 1035.7 1034.5
06 22.06 Ю 1 25 км н/о +8.2 +7.3 94 +7 +7 1035.7 1034.5 +6.1
07 22.06 ЮЗ 1 26 км н/о +11.4 +8.2 81 +11 +11 1035.8 1034.6
08 22.06 СЗ 2 29 км н/о +12.1 +6.1 67 +11 +11 1035.9 1034.7
09 22.06 З 1 30 км н/о +12.7 +7.0 68 +13 +13 1036.0 1034.8
10 22.06 З 2 30 км н/о +13.0 +6.4 64 +12 +12 1036.0 1034.8
11 22.06 З 3 23 км н/о +13.8 +6.8 63 +13 +13 1035.9 1034.7
12 22.06 СЗ 3 28 км н/о +14.0 +7.1 63 +13 +13 1035.8 1034.6
13 22.06 СЗ 3 27 км н/о +14.9 +7.2 60 +14 +14 1035.4 1034.3
14 22.06 СЗ 3 27 км н/о +15.0 +7.0 59 +14 +14 1035.1 1033.9
15 22.06 СЗ 3 30 км н/о +14.9 +7.1 60 +14 +14 1034.8 1033.6
16 22.06 СЗ 4 30 км н/о +15.0 +7.2 60 +14 +14 1034.6 1033.4
17 22.06 СЗ 3 29 км н/о +14.8 +7.4 61 +14 +14 1034.1 1032.9
18 22.06 СЗ 2 35 км н/о +14.8 +7.8 63 +15 +15 1033.6 1032.5 +15.5
19 22.06 СЗ 3 30 км н/о +14.0 +7.7 66 +13 +13 1033.5 1032.3
20 22.06 СЗ 2 26 км н/о +13.5 +8.3 71 +13 +13 1033.2 1032.0
21 22.06 С 1 35 км н/о +11.9 +8.0 77 +12 +12 1033.2 1032.0
22 22.06 С 1 26 км н/о +8.8 +6.5 85 +8 +8 1033.2 1032.0
23 22.06 С 2 27 км н/о +8.6 +6.6 87 +7 +7 1033.2 1032.0
00 23.06 С 1 21 км н/о +8.0 +6.2 88 +7 +7 1032.6 1031.4
01 23.06 штиль 0 22 км н/о +7.3 +5.7 90 +6 +6 1032.2 1030.9
02 23.06 штиль 0 21 км н/о +7.9 +6.8 93 +7 +7 1032.1 1030.9
03 23.06 штиль 0 27 км н/о +7.1 +5.9 92 +6 +6 1031.6 1030.4
04 23.06 штиль 0 15 км н/о +6.7 +5.8 94 +6 +6 1031.6 1030.3
05 23.06 ЮВ 1 23 км н/о +6.6 +5.7 94 +5 +5 1031.3 1030.1
06 23.06 ЮВ 2 25 км н/о +10.2 +9.3 94 +9 +9 1031.1 1029.9 +6.5
07 23.06 Ю 2 25 км н/о +11.9 +9.8 87 +11 +11 1031.0 1029.8
08 23.06 Ю 2 30 км н/о +12.7 +8.5 76 +12 +12 1031.0 1029.8
09 23.06 З 2 26 км н/о +13.3 +7.9 70 +13 +13 1030.9 1029.7
10 23.06 З 2 30 км н/о +14.4 +7.5 63 +14 +14 1030.9 1029.7
11 23.06 З 2 28 км н/о +14.7 +8.0 64 +14 +14 1030.6 1029.5
12 23.06 ЮЗ 2 22 км н/о +14.6 +7.4 62 +14 +14 1030.3 1029.1
13 23.06 З 3 20 км н/о +15.1 +8.0 63 +14 +14 1029.7 1028.6
14 23.06 З 3 28 км н/о +15.2 +8.7 65 +15 +15 1029.3 1028.1
15 23.06 З 4 30 км н/о +15.1 +8.0 63 +14 +14 1029.0 1027.9
16 23.06 З 4 25 км н/о +14.7 +8.5 66 +14 +14 1029.0 1027.8

 

Местоположение метеостанции Belmullet (Ирландия): широта 54.23 долгота -10.00 высота над уровнем моря 9 м.

В архиве по умолчанию представлена погода в Belmullet за последнюю неделю. Архивные данные за месяц целиком и за предыдущие месяцы, начиная с января 2011 года, Вы можете получить, выбрав интересующий диапазон дат из раскрывающегося списка и нажав кнопку "Ввод!".


*Определитесь, кто Вы:
робот инопланетянин человек

Внимание! Время в таблицах - всемирное. Для получения местного времени необходимо прибавить поправку, которая в Belmullet равна 0 ч.

Смотрите также архив погоды в соседних городах и на ближайших метеорологических станциях:

Погода в Knock Airport (Ирландия) (85 км)
Погода в Claremorris (Ирландия) (88 км)
Погода в Mace Head (Ирландия) (101 км)
Погода в Finner (Ирландия) (118 км)
Погода в Thomastown (Великобритания) (157 км)
Погода в Castlederg (Великобритания) (165 км)
Погода в Ballyhaise, Cavan (Ирландия) (176 км)
Погода в Shannon Airport (Ирландия) (186 км)
Погода в Gurteen (Ирландия) (187 км)
Погода в Mullingar (Ирландия) (189 км)

Пояснения к столбцам:

Ветер - указаны скорость ветра в м/с - средняя за 10 мин, порывы в срок и между сроками (в фигурных скобках) и направление, откуда дует ветер: С - северный, СВ - северо-восточный, В - восточный, ЮВ - юго-восточный, Ю - южный, ЮЗ - юго-западный, З - западный, СЗ - северо-западный.
Видимость - горизонтальная дальность видимости в метрах или километрах. При видимости от 1 до 10 км при отсутствии осадков обычно наблюдается дымка, при ухудшении видимости до 1 км и менее - туман. В сухую погоду видимость может ухудшаться дымом, пылью или мглою.
Явления - указаны атмосферные явления, наблюдавшиеся в срок или в последний час перед сроком; фигурными скобками обозначены явления, наблюдавшиеся между сроками (за 1-3 часа до срока); квадратными скобками обозначены град или гололедные отложения с указанием их диаметра в мм.
Облачность - указаны через наклонную черту общая и нижняя облачность в баллах и высота нижней границы облаков в метрах; квадратными скобками обозначены формы облаков: Ci - перистые, Cs - перисто-слоистые, Cc - перисто-кучевые, Ac - высококучевые, As - высокослоистые, Sc - слоисто-кучевые, Ns - слоисто-дождевые, Cu - кучевые, Cb - кучево-дождевые. Подробнее классификацию облаков см. в Атласе облаков (PDF).
T - Температура воздуха - температура, измеренная на высоте 2 м над землей.
Td - Температура точки росы - температура, при понижении до которой содержащийся в воздухе водяной пар достигнет насыщения.
f - Относительная влажность воздуха - влажноcть воздуха, измеренная на высоте 2 м над землей.
Te - Эффективная температура - температура, которую ощущает одетый по сезону человек в тени. Характеристика душности погоды. При расчете учитывается влияние влажности воздуха и скорости ветра на теплоощущения человека.
Tes - Эффективная температура на солнце - температура, которую ощущает человек, с поправкой на солнечный нагрев. Характеристика знойности погоды. Зависит от высоты солнца над горизонтом, облачности и скорости ветра. Ночью, в пасмурную погоду, а также при ветре 12 м/с и более поправка равна нулю.
P - Атмосферное давление - приведенное к уровню моря атмосферное давление.
Po - Атмосферное давление - измеренное на уровне метеостанции атмосферное давление.
Tmin - Минимальная температура - минимум температуры воздуха на высоте 2 м над землей.
Tmax - Максимальная температура - максимум температуры воздуха на высоте 2 м над землей.
R - Количество осадков - Количество выпавших осадков за период времени, мм. При наведении курсора мыши на число - период времени, за который выпало указанное количество осадков.
R24 - Количество осадков - Количество выпавших осадков за 24 часа, мм.
S - Снежный покров - Высота снежного покрова, см. При наведении курсора мыши на число - состояние снежного покрова и степень покрытия местности в баллах.